TimeAST,TemperatureF,Dew PointF,Humidity,Sea Level PressureIn,VisibilityMPH,Wind Direction,Wind SpeedMPH,Gust SpeedMPH,PrecipitationIn,Events,Conditions,WindDirDegrees,DateUTC
12:00 AM,82.4,77.0,84,29.74,6.2,NNE,8.1,-,N/A,,Mostly Cloudy,20,2013-09-13 04:00:00
1:00 AM,80.6,75.2,84,29.74,6.2,NNE,6.9,-,N/A,,Mostly Cloudy,20,2013-09-13 05:00:00
2:00 AM,78,76,93,29.73,11,ENE,8.1,,,Rain,Light Rain Showers,70,2013-09-13 06:00:00
2:00 AM,78.8,77.0,94,29.71,6.2,ENE,8.1,-,N/A,Rain,Light Rain Showers,70,2013-09-13 06:00:00
3:00 AM,78.8,75.2,89,29.71,6.2,ENE,5.8,-,N/A,,Mostly Cloudy,70,2013-09-13 07:00:00
5:00 AM,78,76,91,29.75,11,East,5.8,,,,Mostly Cloudy,100,2013-09-13 09:00:00
5:00 AM,78.8,75.2,89,29.74,6.2,East,5.8,-,N/A,,Mostly Cloudy,100,2013-09-13 09:00:00
6:00 AM,78.8,75.2,89,29.74,6.2,East,11.5,-,N/A,,Mostly Cloudy,90,2013-09-13 10:00:00
7:00 AM,78.8,75.2,89,29.74,6.2,Calm,Calm,-,N/A,,Mostly Cloudy,0,2013-09-13 11:00:00
8:00 AM,82,74,71,29.78,9,Calm,Calm,,,,Widespread Dust,,2013-09-13 12:00:00
8:00 AM,82.4,73.4,74,29.77,6.2,Calm,Calm,-,N/A,,Mostly Cloudy,0,2013-09-13 12:00:00
9:00 AM,82.4,77.0,84,29.80,6.2,East,5.8,-,N/A,,Mostly Cloudy,90,2013-09-13 13:00:00
10:00 AM,82.4,80.6,94,29.80,6.2,SSE,11.5,-,N/A,,Mostly Cloudy,150,2013-09-13 14:00:00
11:00 AM,86,79,75,29.81,9,SSE,11.5,,,,Widespread Dust,150,2013-09-13 15:00:00
11:00 AM,86.0,78.8,79,29.80,6.2,SSE,11.5,-,N/A,,Mostly Cloudy,150,2013-09-13 15:00:00
12:00 PM,86.0,78.8,79,29.77,6.2,South,11.5,-,N/A,,Mostly Cloudy,180,2013-09-13 16:00:00
1:00 PM,82.4,78.8,89,29.77,5.6,North,5.8,-,N/A,Rain,Rain Showers,10,2013-09-13 17:00:00
2:00 PM,86,76,66,29.75,7,SW,5.8,,,,Widespread Dust,220,2013-09-13 18:00:00
2:00 PM,86.0,77.0,74,29.74,6.2,SW,5.8,-,N/A,,Mostly Cloudy,220,2013-09-13 18:00:00
3:00 PM,86.0,78.8,79,29.71,6.2,WSW,5.8,-,N/A,,Mostly Cloudy,240,2013-09-13 19:00:00
4:00 PM,86.0,78.8,79,29.71,6.2,Variable,2.3,-,N/A,,Mostly Cloudy,0,2013-09-13 20:00:00
5:00 PM,84,79,82,29.73,11,NNE,8.1,,,,Widespread Dust,30,2013-09-13 21:00:00
5:00 PM,84.2,78.8,84,29.71,6.2,NNE,8.1,-,N/A,,Mostly Cloudy,30,2013-09-13 21:00:00
6:00 PM,84.2,78.8,84,29.74,6.2,Calm,Calm,-,N/A,,Mostly Cloudy,0,2013-09-13 22:00:00
7:00 PM,80.6,78.8,94,29.74,6.2,Calm,Calm,-,N/A,Thunderstorm,Mostly Cloudy,0,2013-09-13 23:00:00
8:00 PM,81,78,88,29.79,14,Calm,Calm,,,,Widespread Dust,,2013-09-14 00:00:00
8:00 PM,80.6,78.8,94,29.77,6.2,Calm,Calm,-,N/A,,Mostly Cloudy,0,2013-09-14 00:00:00
9:00 PM,80.6,77.0,89,29.80,6.2,Calm,Calm,-,N/A,,Mostly Cloudy,0,2013-09-14 01:00:00
10:00 PM,80.6,77.0,89,29.83,6.2,Calm,Calm,-,N/A,,Mostly Cloudy,0,2013-09-14 02:00:00
11:00 PM,80,78,92,29.84,14,Calm,Calm,,,,Widespread Dust,,2013-09-14 03:00:00
11:00 PM,80.6,78.8,94,29.83,6.2,Calm,Calm,-,N/A,,Scattered Clouds,0,2013-09-14 03:00:00